Year,Month,Day,Hour,Minute,Value (Times are PST for temperature in C)
2016,02,16,00,00,9.50
2016,02,16,00,01,9.50
2016,02,16,00,02,9.50
2016,02,16,00,03,9.40
2016,02,16,00,04,9.40
2016,02,16,00,05,9.40
2016,02,16,00,06,9.40
2016,02,16,00,07,9.40
2016,02,16,00,08,9.40
2016,02,16,00,09,9.40
2016,02,16,00,10,9.30
2016,02,16,00,11,9.30
2016,02,16,00,12,9.30
2016,02,16,00,13,9.30
2016,02,16,00,14,9.30
2016,02,16,00,15,9.30
2016,02,16,00,16,9.20
2016,02,16,00,17,9.20
2016,02,16,00,18,9.20
2016,02,16,00,19,9.20
2016,02,16,00,20,9.20
2016,02,16,00,21,9.20
2016,02,16,00,22,9.20
2016,02,16,00,23,9.20
2016,02,16,00,24,9.20
2016,02,16,00,25,9.20
2016,02,16,00,26,9.20
2016,02,16,00,27,9.20
2016,02,16,00,28,9.20
2016,02,16,00,29,9.20
2016,02,16,00,30,9.10
2016,02,16,00,31,9.10
2016,02,16,00,32,9.10
2016,02,16,00,33,9.10
2016,02,16,00,34,9.10
2016,02,16,00,35,9.10
2016,02,16,00,36,9.00
2016,02,16,00,37,9.00
2016,02,16,00,38,8.90
2016,02,16,00,39,8.90
2016,02,16,00,40,8.90
2016,02,16,00,41,8.90
2016,02,16,00,42,8.90
2016,02,16,00,43,8.90
2016,02,16,00,44,8.80
2016,02,16,00,45,8.80
2016,02,16,00,46,8.80
2016,02,16,00,47,8.80
2016,02,16,00,48,8.70
2016,02,16,00,49,8.70
2016,02,16,00,50,8.70
2016,02,16,00,51,8.70
2016,02,16,00,52,8.60
2016,02,16,00,53,8.60
2016,02,16,00,54,8.60
2016,02,16,00,55,8.60
2016,02,16,00,56,8.60
2016,02,16,00,57,8.60
2016,02,16,00,58,8.60
2016,02,16,00,59,8.50
2016,02,16,01,00,8.50
2016,02,16,01,01,8.50
2016,02,16,01,02,8.40
2016,02,16,01,03,8.40
2016,02,16,01,04,8.40
2016,02,16,01,05,8.40
2016,02,16,01,06,8.40
2016,02,16,01,07,8.40
2016,02,16,01,08,8.40
2016,02,16,01,09,8.40
2016,02,16,01,10,8.30
2016,02,16,01,11,8.30
2016,02,16,01,12,8.30
2016,02,16,01,13,8.30
2016,02,16,01,14,8.20
2016,02,16,01,15,8.20
2016,02,16,01,16,8.20
2016,02,16,01,17,8.20
2016,02,16,01,18,8.20
2016,02,16,01,19,8.20
2016,02,16,01,20,8.20
2016,02,16,01,21,8.20
2016,02,16,01,22,8.20
2016,02,16,01,23,8.20
2016,02,16,01,24,8.20
2016,02,16,01,25,8.20
2016,02,16,01,26,8.20
2016,02,16,01,27,8.20
2016,02,16,01,28,8.20
2016,02,16,01,29,8.20
2016,02,16,01,30,8.20
2016,02,16,01,31,8.20
2016,02,16,01,32,8.20
2016,02,16,01,33,8.20
2016,02,16,01,34,8.20
2016,02,16,01,35,8.20
2016,02,16,01,36,8.20
2016,02,16,01,37,8.20
2016,02,16,01,38,8.10
2016,02,16,01,39,8.10
2016,02,16,01,40,8.10
2016,02,16,01,41,8.10
2016,02,16,01,42,8.10
2016,02,16,01,43,8.10
2016,02,16,01,44,8.10
2016,02,16,01,45,8.10
2016,02,16,01,46,8.10
2016,02,16,01,47,8.10
2016,02,16,01,48,8.10
2016,02,16,01,49,8.00
2016,02,16,01,50,8.00
2016,02,16,01,51,8.00
2016,02,16,01,52,8.00
2016,02,16,01,53,8.00
2016,02,16,01,54,8.00
2016,02,16,01,55,8.00
2016,02,16,01,56,8.00
2016,02,16,01,57,8.00
2016,02,16,01,58,8.00
2016,02,16,01,59,8.10
2016,02,16,02,00,8.10
2016,02,16,02,01,8.20
2016,02,16,02,02,8.20
2016,02,16,02,03,8.20
2016,02,16,02,04,8.20
2016,02,16,02,05,8.20
2016,02,16,02,06,8.10
2016,02,16,02,07,8.10
2016,02,16,02,08,8.10
2016,02,16,02,09,8.00
2016,02,16,02,10,8.00
2016,02,16,02,11,7.90
2016,02,16,02,12,7.90
2016,02,16,02,13,7.90
2016,02,16,02,14,7.80
2016,02,16,02,15,7.80
2016,02,16,02,16,7.80
2016,02,16,02,17,7.80
2016,02,16,02,18,7.90
2016,02,16,02,19,7.90
2016,02,16,02,20,7.90
2016,02,16,02,21,7.90
2016,02,16,02,22,7.80
2016,02,16,02,23,7.80
2016,02,16,02,24,7.80
2016,02,16,02,25,7.80
2016,02,16,02,26,7.80
2016,02,16,02,27,7.80
2016,02,16,02,28,7.80
2016,02,16,02,29,7.80
2016,02,16,02,30,7.80
2016,02,16,02,31,7.80
2016,02,16,02,32,7.70
2016,02,16,02,33,7.70
2016,02,16,02,34,7.70
2016,02,16,02,35,7.70
2016,02,16,02,36,7.70
2016,02,16,02,37,7.70
2016,02,16,02,38,7.70
2016,02,16,02,39,7.70
2016,02,16,02,40,7.70
2016,02,16,02,41,7.70
2016,02,16,02,42,7.70
2016,02,16,02,43,7.70
2016,02,16,02,44,7.70
2016,02,16,02,45,7.70
2016,02,16,02,46,7.70
2016,02,16,02,47,7.70
2016,02,16,02,48,7.70
2016,02,16,02,49,7.70
2016,02,16,02,50,7.60
2016,02,16,02,51,7.60
2016,02,16,02,52,7.60
2016,02,16,02,53,7.50
2016,02,16,02,54,7.50
2016,02,16,02,55,7.50
2016,02,16,02,56,7.50
2016,02,16,02,57,7.40
2016,02,16,02,58,7.50
2016,02,16,02,59,7.40
2016,02,16,03,00,7.40
2016,02,16,03,01,7.40
2016,02,16,03,02,7.40
2016,02,16,03,03,7.40
2016,02,16,03,04,7.30
2016,02,16,03,05,7.30
2016,02,16,03,06,7.30
2016,02,16,03,07,7.20
2016,02,16,03,08,7.20
2016,02,16,03,09,7.20
2016,02,16,03,10,7.20
2016,02,16,03,11,7.20
2016,02,16,03,12,7.20
2016,02,16,03,13,7.20
2016,02,16,03,14,7.10
2016,02,16,03,15,7.10
2016,02,16,03,16,7.10
2016,02,16,03,17,7.10
2016,02,16,03,18,7.00
2016,02,16,03,19,7.00
2016,02,16,03,20,7.00
2016,02,16,03,21,6.90
2016,02,16,03,22,6.90
2016,02,16,03,23,6.90
2016,02,16,03,24,6.90
2016,02,16,03,25,6.90
2016,02,16,03,26,6.90
2016,02,16,03,27,6.80
2016,02,16,03,28,6.80
2016,02,16,03,29,6.70
2016,02,16,03,30,6.70
2016,02,16,03,31,6.70
2016,02,16,03,32,6.70
2016,02,16,03,33,6.70
2016,02,16,03,34,6.60
2016,02,16,03,35,6.60
2016,02,16,03,36,6.60
2016,02,16,03,37,6.70
2016,02,16,03,38,6.70
2016,02,16,03,39,6.70
2016,02,16,03,40,6.70
2016,02,16,03,41,6.70
2016,02,16,03,42,6.70
2016,02,16,03,43,6.60
2016,02,16,03,44,6.60
2016,02,16,03,45,6.60
2016,02,16,03,46,6.60
2016,02,16,03,47,6.60
2016,02,16,03,48,6.60
2016,02,16,03,49,6.60
2016,02,16,03,50,6.60
2016,02,16,03,51,6.60
2016,02,16,03,52,6.50
2016,02,16,03,53,6.50
2016,02,16,03,54,6.50
2016,02,16,03,55,6.50
2016,02,16,03,56,6.60
2016,02,16,03,57,6.60
2016,02,16,03,58,6.70
2016,02,16,03,59,6.70
2016,02,16,04,00,6.60
2016,02,16,04,01,6.60
2016,02,16,04,02,6.50
2016,02,16,04,03,6.50
2016,02,16,04,04,6.40
2016,02,16,04,05,6.30
2016,02,16,04,06,6.30
2016,02,16,04,07,6.20
2016,02,16,04,08,6.20
2016,02,16,04,09,6.20
2016,02,16,04,10,6.20
2016,02,16,04,11,6.20
2016,02,16,04,12,6.20
2016,02,16,04,13,6.10
2016,02,16,04,14,6.10
2016,02,16,04,15,6.00
2016,02,16,04,16,5.90
2016,02,16,04,17,5.90
2016,02,16,04,18,5.80
2016,02,16,04,19,5.80
2016,02,16,04,20,5.80
2016,02,16,04,21,5.80
2016,02,16,04,22,5.80
2016,02,16,04,23,5.80
2016,02,16,04,24,5.70
2016,02,16,04,25,5.70
2016,02,16,04,26,5.70
2016,02,16,04,27,5.70
2016,02,16,04,28,5.70
2016,02,16,04,29,5.70
2016,02,16,04,30,5.70
2016,02,16,04,31,5.70
2016,02,16,04,32,5.70
2016,02,16,04,33,5.70
2016,02,16,04,34,5.60
2016,02,16,04,35,5.50
2016,02,16,04,36,5.50
2016,02,16,04,37,5.40
2016,02,16,04,38,5.40
2016,02,16,04,39,5.30
2016,02,16,04,40,5.30
2016,02,16,04,41,5.30
2016,02,16,04,42,5.20
2016,02,16,04,43,5.20
2016,02,16,04,44,5.20
2016,02,16,04,45,5.30
2016,02,16,04,46,5.30
2016,02,16,04,47,5.30
2016,02,16,04,48,5.40
2016,02,16,04,49,5.50
2016,02,16,04,50,5.60
2016,02,16,04,51,5.60
2016,02,16,04,52,5.70
2016,02,16,04,53,5.70
2016,02,16,04,54,5.70
2016,02,16,04,55,5.70
2016,02,16,04,56,5.80
2016,02,16,04,57,5.80
2016,02,16,04,58,5.80
2016,02,16,04,59,5.80
2016,02,16,05,00,5.80
2016,02,16,05,01,5.90
2016,02,16,05,02,5.90
2016,02,16,05,03,5.90
2016,02,16,05,04,6.00
2016,02,16,05,05,6.00
2016,02,16,05,06,6.00
2016,02,16,05,07,5.90
2016,02,16,05,08,5.70
2016,02,16,05,09,5.50
2016,02,16,05,10,5.40
2016,02,16,05,11,5.30
2016,02,16,05,12,5.30
2016,02,16,05,13,5.20
2016,02,16,05,14,5.20
2016,02,16,05,15,5.20
2016,02,16,05,16,5.10
2016,02,16,05,17,5.10
2016,02,16,05,18,5.10
2016,02,16,05,19,5.10
2016,02,16,05,20,5.10
2016,02,16,05,21,5.20
2016,02,16,05,22,5.20
2016,02,16,05,23,5.20
2016,02,16,05,24,5.20
2016,02,16,05,25,5.30
2016,02,16,05,26,5.40
2016,02,16,05,27,5.50
2016,02,16,05,28,5.70
2016,02,16,05,29,5.80
2016,02,16,05,30,5.80
2016,02,16,05,31,5.90
2016,02,16,05,32,5.70
2016,02,16,05,33,5.50
2016,02,16,05,34,5.30
2016,02,16,05,35,5.10
2016,02,16,05,36,5.00
2016,02,16,05,37,4.90
2016,02,16,05,38,5.00
2016,02,16,05,39,5.10
2016,02,16,05,40,5.10
2016,02,16,05,41,5.30
2016,02,16,05,42,5.40
2016,02,16,05,43,5.60
2016,02,16,05,44,5.80
2016,02,16,05,45,5.90
2016,02,16,05,46,6.10
2016,02,16,05,47,6.20
2016,02,16,05,48,6.30
2016,02,16,05,49,6.30
2016,02,16,05,50,6.30
2016,02,16,05,51,6.30
2016,02,16,05,52,6.30
2016,02,16,05,53,6.30
2016,02,16,05,54,6.30
2016,02,16,05,55,6.30
2016,02,16,05,56,6.20
2016,02,16,05,57,6.20
2016,02,16,05,58,6.20
2016,02,16,05,59,6.20
2016,02,16,06,00,6.10
2016,02,16,06,01,6.20
2016,02,16,06,02,6.20
2016,02,16,06,03,6.20
2016,02,16,06,04,6.20
2016,02,16,06,05,6.20
2016,02,16,06,06,6.20
2016,02,16,06,07,6.20
2016,02,16,06,08,6.20
2016,02,16,06,09,6.20
2016,02,16,06,10,6.10
2016,02,16,06,11,6.00
2016,02,16,06,12,5.80
2016,02,16,06,13,5.70
2016,02,16,06,14,5.60
2016,02,16,06,15,5.60
2016,02,16,06,16,5.60
2016,02,16,06,17,5.60
2016,02,16,06,18,5.60
2016,02,16,06,19,5.60
2016,02,16,06,20,5.60
2016,02,16,06,21,5.60
2016,02,16,06,22,5.60
2016,02,16,06,23,5.70
2016,02,16,06,24,5.70
2016,02,16,06,25,5.70
2016,02,16,06,26,5.70
2016,02,16,06,27,5.70
2016,02,16,06,28,5.70
2016,02,16,06,29,5.70
2016,02,16,06,30,5.70
2016,02,16,06,31,5.70
2016,02,16,06,32,5.70
2016,02,16,06,33,5.70
2016,02,16,06,34,5.60
2016,02,16,06,35,5.60
2016,02,16,06,36,5.60
2016,02,16,06,37,5.60
2016,02,16,06,38,5.60
2016,02,16,06,39,5.60
2016,02,16,06,40,5.60
2016,02,16,06,41,5.60
2016,02,16,06,42,5.60
2016,02,16,06,43,5.60
2016,02,16,06,44,5.50
2016,02,16,06,45,5.50
2016,02,16,06,46,5.40
2016,02,16,06,47,5.40
2016,02,16,06,48,5.30
2016,02,16,06,49,5.30
2016,02,16,06,50,5.30
2016,02,16,06,51,5.30
2016,02,16,06,52,5.30
2016,02,16,06,53,5.30
2016,02,16,06,54,5.40
2016,02,16,06,55,5.40
2016,02,16,06,56,5.40
2016,02,16,06,57,5.40
2016,02,16,06,58,5.40
2016,02,16,06,59,5.40
2016,02,16,07,00,5.40
2016,02,16,07,01,5.40
2016,02,16,07,02,5.30
2016,02,16,07,03,5.30
2016,02,16,07,04,5.30
2016,02,16,07,05,5.20
2016,02,16,07,06,5.20
2016,02,16,07,07,5.10
2016,02,16,07,08,5.00
2016,02,16,07,09,5.00
2016,02,16,07,10,4.90
2016,02,16,07,11,4.90
2016,02,16,07,12,4.90
2016,02,16,07,13,4.80
2016,02,16,07,14,4.80
2016,02,16,07,15,4.80
2016,02,16,07,16,4.80
2016,02,16,07,17,4.70
2016,02,16,07,18,4.70
2016,02,16,07,19,4.70
2016,02,16,07,20,4.70
2016,02,16,07,21,4.70
2016,02,16,07,22,4.70
2016,02,16,07,23,4.70
2016,02,16,07,24,4.60
2016,02,16,07,25,4.60
2016,02,16,07,26,4.60
2016,02,16,07,27,4.60
2016,02,16,07,28,4.60
2016,02,16,07,29,4.70
2016,02,16,07,30,4.70
2016,02,16,07,31,4.70
2016,02,16,07,32,4.80
2016,02,16,07,33,4.90
2016,02,16,07,34,4.90
2016,02,16,07,35,4.90
2016,02,16,07,36,5.00
2016,02,16,07,37,5.00
2016,02,16,07,38,5.10
2016,02,16,07,39,5.20
2016,02,16,07,40,5.30
2016,02,16,07,41,5.30
2016,02,16,07,42,5.30
2016,02,16,07,43,5.30
2016,02,16,07,44,5.30
2016,02,16,07,45,5.30
2016,02,16,07,46,5.20
2016,02,16,07,47,5.20
2016,02,16,07,48,5.20
2016,02,16,07,49,5.20
2016,02,16,07,50,5.20
2016,02,16,07,51,5.10
2016,02,16,07,52,5.10
2016,02,16,07,53,5.10
2016,02,16,07,54,5.10
2016,02,16,07,55,5.10
2016,02,16,07,56,5.10
2016,02,16,07,57,5.10
2016,02,16,07,58,5.10
2016,02,16,07,59,5.10
2016,02,16,08,00,5.00
2016,02,16,08,01,5.00
2016,02,16,08,02,4.90
2016,02,16,08,03,4.80
2016,02,16,08,04,4.80
2016,02,16,08,05,4.70
2016,02,16,08,06,4.70
2016,02,16,08,07,4.70
2016,02,16,08,08,4.70
2016,02,16,08,09,4.70
2016,02,16,08,10,4.70
2016,02,16,08,11,4.70
2016,02,16,08,12,4.70
2016,02,16,08,13,4.80
2016,02,16,08,14,4.80
2016,02,16,08,15,4.80
2016,02,16,08,16,4.90
2016,02,16,08,17,4.90
2016,02,16,08,18,4.90
2016,02,16,08,19,5.00
2016,02,16,08,20,5.00
2016,02,16,08,21,5.00
2016,02,16,08,22,5.00
2016,02,16,08,23,5.10
2016,02,16,08,24,5.10
2016,02,16,08,25,5.10
2016,02,16,08,26,5.10
2016,02,16,08,27,5.20
2016,02,16,08,28,5.20
2016,02,16,08,29,5.20
2016,02,16,08,30,5.20
2016,02,16,08,31,5.30
2016,02,16,08,32,5.20
2016,02,16,08,33,5.20
2016,02,16,08,34,5.20
2016,02,16,08,35,5.20
2016,02,16,08,36,5.20
2016,02,16,08,37,5.30
2016,02,16,08,38,5.30
2016,02,16,08,39,5.30
2016,02,16,08,40,5.30
2016,02,16,08,41,5.20
2016,02,16,08,42,5.20
2016,02,16,08,43,5.20
2016,02,16,08,44,5.20
2016,02,16,08,45,5.20
2016,02,16,08,46,5.10
2016,02,16,08,47,5.10
2016,02,16,08,48,5.10
2016,02,16,08,49,5.10
2016,02,16,08,50,5.10
2016,02,16,08,51,5.10
2016,02,16,08,52,5.10
2016,02,16,08,53,5.10
2016,02,16,08,54,5.10
2016,02,16,08,55,5.10
2016,02,16,08,56,5.10
2016,02,16,08,57,5.20
2016,02,16,08,58,5.20
2016,02,16,08,59,5.20
2016,02,16,09,00,5.30
2016,02,16,09,01,5.30
2016,02,16,09,02,5.40
2016,02,16,09,03,5.40
2016,02,16,09,04,5.50
2016,02,16,09,05,5.60
2016,02,16,09,06,5.70
2016,02,16,09,07,5.80
2016,02,16,09,08,5.90
2016,02,16,09,09,6.10
2016,02,16,09,10,6.20
2016,02,16,09,11,6.30
2016,02,16,09,12,6.50
2016,02,16,09,13,6.60
2016,02,16,09,14,6.70
2016,02,16,09,15,6.70
2016,02,16,09,16,6.70
2016,02,16,09,17,6.70
2016,02,16,09,18,6.80
2016,02,16,09,19,6.80
2016,02,16,09,20,6.90
2016,02,16,09,21,6.90
2016,02,16,09,22,7.00
2016,02,16,09,23,7.10
2016,02,16,09,24,7.20
2016,02,16,09,25,7.30
2016,02,16,09,26,7.40
2016,02,16,09,27,7.50
2016,02,16,09,28,7.50
2016,02,16,09,29,7.60
2016,02,16,09,30,7.70
2016,02,16,09,31,7.80
2016,02,16,09,32,7.90
2016,02,16,09,33,7.90
2016,02,16,09,34,8.00
2016,02,16,09,35,8.10
2016,02,16,09,36,8.10
2016,02,16,09,37,8.20
2016,02,16,09,38,8.20
2016,02,16,09,39,8.30
2016,02,16,09,40,8.40
2016,02,16,09,41,8.40
2016,02,16,09,42,8.40
2016,02,16,09,43,8.40
2016,02,16,09,44,8.50
2016,02,16,09,45,8.50
2016,02,16,09,46,8.50
2016,02,16,09,47,8.40
2016,02,16,09,48,8.40
2016,02,16,09,49,8.50
2016,02,16,09,50,8.50
2016,02,16,09,51,8.50
2016,02,16,09,52,8.50
2016,02,16,09,53,8.60
2016,02,16,09,54,8.60
2016,02,16,09,55,8.60
2016,02,16,09,56,8.60
2016,02,16,09,57,8.60
2016,02,16,09,58,8.60
2016,02,16,09,59,8.60
2016,02,16,10,00,8.70
2016,02,16,10,01,8.70
2016,02,16,10,02,8.60
2016,02,16,10,03,8.60
2016,02,16,10,04,8.70
2016,02,16,10,05,8.70
2016,02,16,10,06,8.60
2016,02,16,10,07,8.70
2016,02,16,10,08,8.70
2016,02,16,10,09,8.70
2016,02,16,10,10,8.70
2016,02,16,10,11,8.70
2016,02,16,10,12,8.70
2016,02,16,10,13,8.70
2016,02,16,10,14,8.70
2016,02,16,10,15,8.70
2016,02,16,10,16,8.80
2016,02,16,10,17,8.80
2016,02,16,10,18,8.80
2016,02,16,10,19,8.80
2016,02,16,10,20,8.80
2016,02,16,10,21,8.80
2016,02,16,10,22,8.90
2016,02,16,10,23,8.90
2016,02,16,10,24,9.00
2016,02,16,10,25,9.00
2016,02,16,10,26,9.00
2016,02,16,10,27,9.00
2016,02,16,10,28,9.10
2016,02,16,10,29,9.10
2016,02,16,10,30,9.10
2016,02,16,10,31,9.10
2016,02,16,10,32,9.10
2016,02,16,10,33,9.10
2016,02,16,10,34,9.10
2016,02,16,10,35,9.10
2016,02,16,10,36,9.20
2016,02,16,10,37,9.20
2016,02,16,10,38,9.20
2016,02,16,10,39,9.20
2016,02,16,10,40,9.30
2016,02,16,10,41,9.30
2016,02,16,10,42,9.30
2016,02,16,10,43,9.30
2016,02,16,10,44,9.30
2016,02,16,10,45,9.40
2016,02,16,10,46,9.40
2016,02,16,10,47,9.40
2016,02,16,10,48,9.50
2016,02,16,10,49,9.50
2016,02,16,10,50,9.60
2016,02,16,10,51,9.60
2016,02,16,10,52,9.60
2016,02,16,10,53,9.60
2016,02,16,10,54,9.70
2016,02,16,10,55,9.70
2016,02,16,10,56,9.70
2016,02,16,10,57,9.60
2016,02,16,10,58,9.70
2016,02,16,10,59,9.80
2016,02,16,11,00,9.80
2016,02,16,11,01,9.80
2016,02,16,11,02,9.90
2016,02,16,11,03,9.90
2016,02,16,11,04,10.00
2016,02,16,11,05,10.00
2016,02,16,11,06,10.10
2016,02,16,11,07,10.10
2016,02,16,11,08,10.20
2016,02,16,11,09,10.30
2016,02,16,11,10,10.40
2016,02,16,11,11,10.50
2016,02,16,11,12,10.50
2016,02,16,11,13,10.60
2016,02,16,11,14,10.70
2016,02,16,11,15,10.70
2016,02,16,11,16,10.80
2016,02,16,11,17,10.90
2016,02,16,11,18,11.00
2016,02,16,11,19,11.00
2016,02,16,11,20,11.00
2016,02,16,11,21,11.00
2016,02,16,11,22,11.00
2016,02,16,11,23,11.00
2016,02,16,11,24,11.10
2016,02,16,11,25,11.00
2016,02,16,11,26,11.00
2016,02,16,11,27,11.10
2016,02,16,11,28,11.00
2016,02,16,11,29,11.00
2016,02,16,11,30,11.00
2016,02,16,11,31,11.00
2016,02,16,11,32,11.00
2016,02,16,11,33,11.00
2016,02,16,11,34,11.10
2016,02,16,11,35,11.10
2016,02,16,11,36,11.10
2016,02,16,11,37,11.20
2016,02,16,11,38,11.20
2016,02,16,11,39,11.30
2016,02,16,11,40,11.30
2016,02,16,11,41,11.30
2016,02,16,11,42,11.30
2016,02,16,11,43,11.30
2016,02,16,11,44,11.40
2016,02,16,11,45,11.40
2016,02,16,11,46,11.50
2016,02,16,11,47,11.60
2016,02,16,11,48,11.60
2016,02,16,11,49,11.60
2016,02,16,11,50,11.70
2016,02,16,11,51,11.80
2016,02,16,11,52,11.80
2016,02,16,11,53,11.90
2016,02,16,11,54,11.90
2016,02,16,11,55,11.90
2016,02,16,11,56,11.90
2016,02,16,11,57,11.90
2016,02,16,11,58,11.80
2016,02,16,11,59,11.80
2016,02,16,12,00,11.80
2016,02,16,12,01,11.80
2016,02,16,12,02,11.80
2016,02,16,12,03,11.80
2016,02,16,12,04,11.90
2016,02,16,12,05,11.90
2016,02,16,12,06,12.00
2016,02,16,12,07,12.10
2016,02,16,12,08,12.20
2016,02,16,12,09,12.20
2016,02,16,12,10,12.20
2016,02,16,12,11,12.20
2016,02,16,12,12,12.20
2016,02,16,12,13,12.20
2016,02,16,12,14,12.10
2016,02,16,12,15,12.00
2016,02,16,12,16,12.00
2016,02,16,12,17,12.00
2016,02,16,12,18,12.10
2016,02,16,12,19,12.20
2016,02,16,12,20,12.20
2016,02,16,12,21,12.30
2016,02,16,12,22,12.30
2016,02,16,12,23,12.40
2016,02,16,12,24,12.50
2016,02,16,12,25,12.50
2016,02,16,12,26,12.60
2016,02,16,12,27,12.60
2016,02,16,12,28,12.60
2016,02,16,12,29,12.60
2016,02,16,12,30,12.60
2016,02,16,12,31,12.50
2016,02,16,12,32,12.50
2016,02,16,12,33,12.50
2016,02,16,12,34,12.40
2016,02,16,12,35,12.40
2016,02,16,12,36,12.40
2016,02,16,12,37,12.30
2016,02,16,12,38,12.30
2016,02,16,12,39,12.30
2016,02,16,12,40,12.30
2016,02,16,12,41,12.30
2016,02,16,12,42,12.30
2016,02,16,12,43,12.20
2016,02,16,12,44,12.20
2016,02,16,12,45,12.10
2016,02,16,12,46,12.10
2016,02,16,12,47,12.10
2016,02,16,12,48,12.10
2016,02,16,12,49,12.20
2016,02,16,12,50,12.20
2016,02,16,12,51,12.20
2016,02,16,12,52,12.20
2016,02,16,12,53,12.20
2016,02,16,12,54,12.10
2016,02,16,12,55,12.00
2016,02,16,12,56,11.90
2016,02,16,12,57,11.80
2016,02,16,12,58,11.70
2016,02,16,12,59,11.70
2016,02,16,13,00,11.70
2016,02,16,13,01,11.70
2016,02,16,13,02,11.80
2016,02,16,13,03,11.90
2016,02,16,13,04,12.00
2016,02,16,13,05,12.00
2016,02,16,13,06,12.10
2016,02,16,13,07,12.20
2016,02,16,13,08,12.20
2016,02,16,13,09,12.20
2016,02,16,13,10,12.20
2016,02,16,13,11,12.30
2016,02,16,13,12,12.30
2016,02,16,13,13,12.30
2016,02,16,13,14,12.30
2016,02,16,13,15,12.30
2016,02,16,13,16,12.40
2016,02,16,13,17,12.50
2016,02,16,13,18,12.60
2016,02,16,13,19,12.60
2016,02,16,13,20,12.70
2016,02,16,13,21,12.70
2016,02,16,13,22,12.70
2016,02,16,13,23,12.60
2016,02,16,13,24,12.50
2016,02,16,13,25,12.40
2016,02,16,13,26,12.40
2016,02,16,13,27,12.40
2016,02,16,13,28,12.40
2016,02,16,13,29,12.50
2016,02,16,13,30,12.50
2016,02,16,13,31,12.60
2016,02,16,13,32,12.60
2016,02,16,13,33,12.60
2016,02,16,13,34,12.60
2016,02,16,13,35,12.50
2016,02,16,13,36,12.40
2016,02,16,13,37,12.30
2016,02,16,13,38,12.30
2016,02,16,13,39,12.30
2016,02,16,13,40,12.30
2016,02,16,13,41,12.30
2016,02,16,13,42,12.30
2016,02,16,13,43,12.30
2016,02,16,13,44,12.30
2016,02,16,13,45,12.30
2016,02,16,13,46,12.40
2016,02,16,13,47,12.40
2016,02,16,13,48,12.40
2016,02,16,13,49,12.40
2016,02,16,13,50,12.40
2016,02,16,13,51,12.40
2016,02,16,13,52,12.30
2016,02,16,13,53,12.20
2016,02,16,13,54,12.10
2016,02,16,13,55,12.00
2016,02,16,13,56,11.90
2016,02,16,13,57,11.80
2016,02,16,13,58,11.80
2016,02,16,13,59,11.70
2016,02,16,14,00,11.70
2016,02,16,14,01,11.70
2016,02,16,14,02,11.70
2016,02,16,14,03,11.70
2016,02,16,14,04,11.60
2016,02,16,14,05,11.60
2016,02,16,14,06,11.60
2016,02,16,14,07,11.60
2016,02,16,14,08,11.60
2016,02,16,14,09,11.60
2016,02,16,14,10,11.60
2016,02,16,14,11,11.60
2016,02,16,14,12,11.60
2016,02,16,14,13,11.60
2016,02,16,14,14,11.60
2016,02,16,14,15,11.60
2016,02,16,14,16,11.60
2016,02,16,14,17,11.60
2016,02,16,14,18,11.60
2016,02,16,14,19,11.60
2016,02,16,14,20,11.60
2016,02,16,14,21,11.60
2016,02,16,14,22,11.60
2016,02,16,14,23,11.60
2016,02,16,14,24,11.70
2016,02,16,14,25,11.70
2016,02,16,14,26,11.80
2016,02,16,14,27,11.90
2016,02,16,14,28,12.00
2016,02,16,14,29,12.10
2016,02,16,14,30,12.20
2016,02,16,14,31,12.20
2016,02,16,14,32,12.30
2016,02,16,14,33,12.30
2016,02,16,14,34,12.40
2016,02,16,14,35,12.50
2016,02,16,14,36,12.50
2016,02,16,14,37,12.50
2016,02,16,14,38,12.60
2016,02,16,14,39,12.60
2016,02,16,14,40,12.70
2016,02,16,14,41,12.70
2016,02,16,14,42,12.70
2016,02,16,14,43,12.70
2016,02,16,14,44,12.70
2016,02,16,14,45,12.70
2016,02,16,14,46,12.60
2016,02,16,14,47,12.60
2016,02,16,14,48,12.60
2016,02,16,14,49,12.60
2016,02,16,14,50,12.50
2016,02,16,14,51,12.50
2016,02,16,14,52,12.40
2016,02,16,14,53,12.40
2016,02,16,14,54,12.30
2016,02,16,14,55,12.30
2016,02,16,14,56,12.30
2016,02,16,14,57,12.20
2016,02,16,14,58,12.30
2016,02,16,14,59,12.30
2016,02,16,15,00,12.30
2016,02,16,15,01,12.30
2016,02,16,15,02,12.30
2016,02,16,15,03,12.30
2016,02,16,15,04,12.30
2016,02,16,15,05,12.30
2016,02,16,15,06,12.40
2016,02,16,15,07,12.40
2016,02,16,15,08,12.30
2016,02,16,15,09,12.30
2016,02,16,15,10,12.30
2016,02,16,15,11,12.30
2016,02,16,15,12,12.30
2016,02,16,15,13,12.30
2016,02,16,15,14,12.30
2016,02,16,15,15,12.30
2016,02,16,15,16,12.20
2016,02,16,15,17,12.20
2016,02,16,15,18,12.20
2016,02,16,15,19,12.10
2016,02,16,15,20,12.10
2016,02,16,15,21,12.00
2016,02,16,15,22,12.00
2016,02,16,15,23,11.90
2016,02,16,15,24,11.90
2016,02,16,15,25,11.90
2016,02,16,15,26,11.90
2016,02,16,15,27,11.90
2016,02,16,15,28,12.00
2016,02,16,15,29,12.00
2016,02,16,15,30,12.00
2016,02,16,15,31,11.90
2016,02,16,15,32,11.90
2016,02,16,15,33,11.90
2016,02,16,15,34,11.90
2016,02,16,15,35,11.90
2016,02,16,15,36,11.80
2016,02,16,15,37,11.80
2016,02,16,15,38,11.70
2016,02,16,15,39,11.70
2016,02,16,15,40,11.60
2016,02,16,15,41,11.60
2016,02,16,15,42,11.60
2016,02,16,15,43,11.60
2016,02,16,15,44,11.50
2016,02,16,15,45,11.50
2016,02,16,15,46,11.50
2016,02,16,15,47,11.50
2016,02,16,15,48,11.50
2016,02,16,15,49,11.50
2016,02,16,15,50,11.60
2016,02,16,15,51,11.60
2016,02,16,15,52,11.60
2016,02,16,15,53,11.60
2016,02,16,15,54,11.50
2016,02,16,15,55,11.50
2016,02,16,15,56,11.40
2016,02,16,15,57,11.40
2016,02,16,15,58,11.40
2016,02,16,15,59,11.40
2016,02,16,16,00,11.30
2016,02,16,16,01,11.30
2016,02,16,16,02,11.30
2016,02,16,16,03,11.30
2016,02,16,16,04,11.30
2016,02,16,16,05,11.30
2016,02,16,16,06,11.30
2016,02,16,16,07,11.30
2016,02,16,16,08,11.30
2016,02,16,16,09,11.20
2016,02,16,16,10,11.20
2016,02,16,16,11,11.20
2016,02,16,16,12,11.20
2016,02,16,16,13,11.20
2016,02,16,16,14,11.20
2016,02,16,16,15,11.20
2016,02,16,16,16,11.20
2016,02,16,16,17,11.20
2016,02,16,16,18,11.20
2016,02,16,16,19,11.20
2016,02,16,16,20,11.20
2016,02,16,16,21,11.20
2016,02,16,16,22,11.20
2016,02,16,16,23,11.20
2016,02,16,16,24,11.20
2016,02,16,16,25,11.20
2016,02,16,16,26,11.20
2016,02,16,16,27,11.20
2016,02,16,16,28,11.20
2016,02,16,16,29,11.20
2016,02,16,16,30,11.20
2016,02,16,16,31,11.20
2016,02,16,16,32,11.20
2016,02,16,16,33,11.20
2016,02,16,16,34,11.20
2016,02,16,16,35,11.10
2016,02,16,16,36,11.10
2016,02,16,16,37,11.10
2016,02,16,16,38,11.10
2016,02,16,16,39,11.10
2016,02,16,16,40,11.10
2016,02,16,16,41,11.10
2016,02,16,16,42,11.10
2016,02,16,16,43,11.10
2016,02,16,16,44,11.00
2016,02,16,16,45,11.00
2016,02,16,16,46,11.00
2016,02,16,16,47,11.00
2016,02,16,16,48,10.90
2016,02,16,16,49,10.90
2016,02,16,16,50,10.90
2016,02,16,16,51,10.90
2016,02,16,16,52,10.90
2016,02,16,16,53,10.90
2016,02,16,16,54,10.90
2016,02,16,16,55,10.90
2016,02,16,16,56,10.90
2016,02,16,16,57,10.90
2016,02,16,16,58,10.80
2016,02,16,16,59,10.80
2016,02,16,17,00,10.80
2016,02,16,17,01,10.80
2016,02,16,17,02,10.80
2016,02,16,17,03,10.80
2016,02,16,17,04,10.80
2016,02,16,17,05,10.80
2016,02,16,17,06,10.80
2016,02,16,17,07,10.70
2016,02,16,17,08,10.70
2016,02,16,17,09,10.70
2016,02,16,17,10,10.70
2016,02,16,17,11,10.60
2016,02,16,17,12,10.60
2016,02,16,17,13,10.60
2016,02,16,17,14,10.60
2016,02,16,17,15,10.60
2016,02,16,17,16,10.50
2016,02,16,17,17,10.50
2016,02,16,17,18,10.50
2016,02,16,17,19,10.40
2016,02,16,17,20,10.40
2016,02,16,17,21,10.40
2016,02,16,17,22,10.40
2016,02,16,17,23,10.40
2016,02,16,17,24,10.30
2016,02,16,17,25,10.30
2016,02,16,17,26,10.30
2016,02,16,17,27,10.30
2016,02,16,17,28,10.30
2016,02,16,17,29,10.30
2016,02,16,17,30,10.20
2016,02,16,17,31,10.20
2016,02,16,17,32,10.20
2016,02,16,17,33,10.20
2016,02,16,17,34,10.20
2016,02,16,17,35,10.20
2016,02,16,17,36,10.20
2016,02,16,17,37,10.10
2016,02,16,17,38,10.10
2016,02,16,17,39,10.10
2016,02,16,17,40,10.10
2016,02,16,17,41,10.10
2016,02,16,17,42,10.10
2016,02,16,17,43,10.10
2016,02,16,17,44,10.10
2016,02,16,17,45,10.10
2016,02,16,17,46,10.10
2016,02,16,17,47,10.10
2016,02,16,17,48,10.00